| time (UTC) | temp F | wind direction | speed MPH | gust MPH | rain 1hr in | rain 24hr in | rain mn in | humidity % | barometer mb |
| 20260506004844 | 52 | 0 | 4.0 | 11.0 | 0.27 | 0.30 | 0.30 | 96 | 1015.4 |
| 20260506004004 | 52 | 15 | 4.0 | 6.0 | 0.25 | 0.27 | 0.27 | 96 | 1015.8 |
| 20260506003845 | 52 | 15 | 4.0 | 6.0 | 0.25 | 0.27 | 0.27 | 96 | 1015.8 |
| 20260506002844 | 53 | 9 | 6.0 | 5.0 | 0.21 | 0.24 | 0.24 | 95 | 1016.0 |
| 20260506001845 | 53 | 351 | 4.0 | 5.0 | 0.18 | 0.21 | 0.21 | 95 | 1015.8 |
| 20260506000848 | 53 | 14 | 2.0 | 11.0 | 0.17 | 0.19 | 0.19 | 95 | 1016.0 |
| 20260506000027 | 54 | 1 | 9.0 | 17.0 | 0.07 | 0.10 | 0.10 | 95 | 1016.1 |
| 20260505235845 | 54 | 1 | 9.0 | 17.0 | 0.07 | 0.10 | 0.10 | 95 | 1016.1 |
| 20260505234845 | 55 | 359 | 3.0 | 17.0 | 0.01 | 0.03 | 0.03 | 92 | 1015.9 |
| 20260505233847 | 57 | 343 | 10.0 | 11.0 | 0.00 | 0.02 | 0.02 | 92 | 1015.7 |
| 20260505231845 | 58 | 352 | 6.0 | 6.0 | 0.00 | 0.02 | 0.02 | 92 | 1015.8 |
| 20260505230845 | 59 | 341 | 5.0 | 8.0 | 0.00 | 0.02 | 0.02 | 91 | 1015.8 |
| 20260505225845 | 59 | 319 | 2.0 | 7.0 | 0.00 | 0.02 | 0.02 | 90 | 1015.9 |
| 20260505224844 | 59 | 26 | 5.0 | 7.0 | 0.00 | 0.01 | 0.01 | 90 | 1016.2 |
| 20260505224001 | 59 | 2 | 3.0 | 6.0 | 0.00 | 0.01 | 0.01 | 89 | 1016.6 |
| 20260505223845 | 59 | 2 | 3.0 | 6.0 | 0.00 | 0.01 | 0.01 | 89 | 1016.6 |
| 20260505222844 | 59 | 350 | 2.0 | 7.0 | 0.00 | 0.01 | 0.01 | 89 | 1016.8 |
| 20260505221845 | 60 | 9 | 4.0 | 6.0 | 0.00 | 0.01 | 0.01 | 88 | 1016.9 |
| 20260505220844 | 60 | 0 | 0.0 | 10.0 | 0.00 | 0.01 | 0.01 | 88 | 1017.1 |
| 20260505215845 | 61 | 337 | 10.0 | 9.0 | 0.00 | 0.01 | 0.01 | 88 | 1017.3 |
| 20260505214844 | 61 | 348 | 5.0 | 7.0 | 0.00 | 0.01 | 0.01 | 87 | 1016.8 |
| 20260505213845 | 62 | 0 | 0.0 | 6.0 | 0.00 | 0.01 | 0.01 | 86 | 1016.7 |
| 20260505212844 | 62 | 355 | 4.0 | 7.0 | 0.00 | 0.01 | 0.01 | 84 | 1016.9 |
| 20260505211845 | 63 | 359 | 4.0 | 1.0 | 0.00 | 0.01 | 0.01 | 83 | 1017.1 |
| 20260505210845 | 64 | 276 | 1.0 | 4.0 | 0.00 | 0.01 | 0.01 | 79 | 1017.2 |
| 20260505210123 | 64 | 0 | 0.0 | 5.0 | 0.00 | 0.01 | 0.01 | 78 | 1017.1 |
| 20260505205845 | 64 | 0 | 0.0 | 5.0 | 0.00 | 0.01 | 0.01 | 78 | 1017.1 |
| 20260505204844 | 64 | 324 | 3.0 | 7.0 | 0.00 | 0.01 | 0.01 | 76 | 1016.7 |
| 20260505203845 | 65 | 18 | 2.0 | 5.0 | 0.00 | 0.01 | 0.01 | 74 | 1016.6 |
| 20260505202844 | 66 | 347 | 2.0 | 2.0 | 0.00 | 0.01 | 0.01 | 72 | 1016.6 |
| 20260505200849 | 66 | 247 | 0.0 | 6.0 | 0.00 | 0.01 | 0.01 | 69 | 1016.8 |
| 20260505195845 | 66 | 338 | 1.0 | 1.0 | 0.00 | 0.01 | 0.01 | 70 | 1016.7 |
| 20260505194844 | 66 | 279 | 1.0 | 4.0 | 0.00 | 0.01 | 0.01 | 70 | 1016.7 |
| 20260505193845 | 65 | 203 | 0.0 | 1.0 | 0.00 | 0.01 | 0.01 | 71 | 1016.8 |
| 20260505192844 | 65 | 0 | 0.0 | 1.0 | 0.00 | 0.01 | 0.01 | 72 | 1016.9 |
| 20260505191847 | 66 | 208 | 0.0 | 8.0 | 0.00 | 0.01 | 0.01 | 70 | 1017.1 |
| 20260505190844 | 67 | 217 | 3.0 | 7.0 | 0.00 | 0.01 | 0.01 | 65 | 1017.1 |
| 20260505185845 | 68 | 0 | 0.0 | 9.0 | 0.00 | 0.01 | 0.01 | 63 | 1016.9 |
| 20260505184844 | 68 | 182 | 2.0 | 7.0 | 0.00 | 0.01 | 0.01 | 62 | 1016.8 |
| 20260505183844 | 68 | 282 | 1.0 | 4.0 | 0.00 | 0.01 | 0.01 | 61 | 1016.7 |
| 20260505182844 | 68 | 204 | 2.0 | 9.0 | 0.00 | 0.01 | 0.01 | 60 | 1016.6 |
| 20260505181845 | 68 | 0 | 0.0 | 8.0 | 0.00 | 0.01 | 0.01 | 62 | 1016.4 |
| 20260505180844 | 68 | 214 | 4.0 | 11.0 | 0.00 | 0.01 | 0.01 | 62 | 1016.3 |
| 20260505175845 | 69 | 200 | 1.0 | 7.0 | 0.00 | 0.01 | 0.01 | 62 | 1016.1 |
| 20260505174844 | 68 | 213 | 6.0 | 8.0 | 0.00 | 0.01 | 0.01 | 63 | 1016.0 |
| 20260505173845 | 69 | 200 | 3.0 | 9.0 | 0.00 | 0.01 | 0.01 | 61 | 1016.0 |
| 20260505172845 | 69 | 196 | 3.0 | 13.0 | 0.00 | 0.01 | 0.01 | 61 | 1016.1 |
| 20260505171845 | 69 | 204 | 7.0 | 7.0 | 0.00 | 0.01 | 0.01 | 61 | 1016.1 |
| 20260505170844 | 69 | 278 | 5.0 | 7.0 | 0.00 | 0.01 | 0.01 | 58 | 1016.2 |
| 20260505165845 | 70 | 204 | 2.0 | 9.0 | 0.00 | 0.01 | 0.01 | 57 | 1016.2 |
| 20260505164844 | 71 | 266 | 7.0 | 10.0 | 0.00 | 0.01 | 0.01 | 55 | 1016.2 |
| 20260505163845 | 72 | 165 | 1.0 | 12.0 | 0.00 | 0.01 | 0.01 | 57 | 1016.2 |
| 20260505162845 | 72 | 247 | 4.0 | 15.0 | 0.00 | 0.01 | 0.01 | 55 | 1016.1 |
| 20260505161845 | 71 | 235 | 2.0 | 12.0 | 0.00 | 0.01 | 0.01 | 55 | 1016.0 |
| 20260505160844 | 70 | 187 | 3.0 | 15.0 | 0.00 | 0.01 | 0.01 | 56 | 1016.0 |
| 20260505152845 | 68 | 207 | 4.0 | 10.0 | 0.00 | 0.01 | 0.01 | 60 | 1016.4 |
| 20260505151845 | 68 | 203 | 5.0 | 13.0 | 0.00 | 0.01 | 0.01 | 62 | 1016.1 |
| 20260505150844 | 68 | 199 | 11.0 | 19.0 | 0.00 | 0.01 | 0.01 | 61 | 1016.2 |
| 20260505124844 | 61 | 215 | 3.0 | 9.0 | 0.01 | 0.01 | 0.01 | 78 | 1015.4 |
| 20260505123845 | 61 | 210 | 4.0 | 9.0 | 0.00 | 0.00 | 0.00 | 78 | 1014.9 |
| 20260505122844 | 62 | 182 | 7.0 | 11.0 | 0.00 | 0.00 | 0.00 | 77 | 1014.8 |
| 20260505121845 | 62 | 199 | 5.0 | 13.0 | 0.00 | 0.00 | 0.00 | 74 | 1014.7 |
| 20260505120844 | 64 | 194 | 7.0 | 14.0 | 0.00 | 0.00 | 0.00 | 70 | 1014.7 |
| 20260505115845 | 64 | 220 | 4.0 | 9.0 | 0.00 | 0.00 | 0.00 | 69 | 1014.5 |
| 20260505114844 | 64 | 196 | 4.0 | 10.0 | 0.00 | 0.00 | 0.00 | 67 | 1014.3 |
| 20260505113845 | 64 | 196 | 5.0 | 14.0 | 0.00 | 0.00 | 0.00 | 67 | 1014.3 |
| 20260505112844 | 64 | 162 | 3.0 | 10.0 | 0.00 | 0.00 | 0.00 | 67 | 1014.0 |
| 20260505111845 | 64 | 184 | 5.0 | 10.0 | 0.00 | 0.00 | 0.00 | 67 | 1013.8 |
| 20260505110844 | 64 | 224 | 3.0 | 11.0 | 0.00 | 0.00 | 0.00 | 67 | 1013.6 |
| 20260505101845 | 64 | 214 | 8.0 | 12.0 | 0.00 | 0.00 | 0.00 | 66 | 1013.1 |
| 20260505100844 | 64 | 196 | 6.0 | 15.0 | 0.00 | 0.00 | 0.00 | 66 | 1013.0 |
| 20260505095845 | 64 | 196 | 3.0 | 12.0 | 0.00 | 0.00 | 0.00 | 66 | 1012.9 |
| 20260505094846 | 64 | 160 | 3.0 | 9.0 | 0.00 | 0.00 | 0.00 | 67 | 1012.7 |
| 20260505093845 | 64 | 193 | 5.0 | 11.0 | 0.00 | 0.00 | 0.00 | 66 | 1012.8 |
| 20260505092846 | 64 | 200 | 6.0 | 9.0 | 0.00 | 0.00 | 0.00 | 66 | 1012.8 |
| 20260505091845 | 64 | 179 | 3.0 | 12.0 | 0.00 | 0.00 | 0.00 | 65 | 1012.8 |
| 20260505090844 | 65 | 187 | 7.0 | 14.0 | 0.00 | 0.00 | 0.00 | 64 | 1012.7 |
| 20260505085845 | 65 | 187 | 4.0 | 15.0 | 0.00 | 0.00 | 0.00 | 63 | 1012.7 |
| 20260505084844 | 65 | 197 | 7.0 | 12.0 | 0.00 | 0.00 | 0.00 | 64 | 1012.7 |
| 20260505083845 | 65 | 201 | 4.0 | 13.0 | 0.00 | 0.00 | 0.00 | 64 | 1012.8 |
| 20260505082845 | 65 | 242 | 5.0 | 9.0 | 0.00 | 0.00 | 0.00 | 64 | 1012.5 |
| 20260505081845 | 65 | 196 | 4.0 | 11.0 | 0.00 | 0.00 | 0.00 | 65 | 1012.4 |
| 20260505080844 | 65 | 200 | 5.0 | 12.0 | 0.00 | 0.00 | 0.00 | 66 | 1012.4 |
| 20260505075845 | 64 | 193 | 4.0 | 8.0 | 0.00 | 0.00 | 0.00 | 67 | 1012.3 |
| 20260505074844 | 64 | 200 | 3.0 | 10.0 | 0.00 | 0.00 | 0.00 | 67 | 1012.4 |
| 20260505073845 | 64 | 196 | 3.0 | 10.0 | 0.00 | 0.00 | 0.00 | 67 | 1012.2 |
| 20260505072844 | 64 | 213 | 4.0 | 12.0 | 0.00 | 0.00 | 0.00 | 67 | 1012.2 |
| 20260505071845 | 64 | 201 | 3.0 | 12.0 | 0.00 | 0.00 | 0.00 | 66 | 1012.2 |
| 20260505070844 | 64 | 194 | 4.0 | 10.0 | 0.00 | 0.00 | 0.00 | 67 | 1012.2 |
| 20260505065844 | 64 | 184 | 6.0 | 9.0 | 0.00 | 0.00 | 0.00 | 67 | 1012.3 |
| 20260505064844 | 64 | 176 | 5.0 | 9.0 | 0.00 | 0.00 | 0.00 | 67 | 1012.4 |
| 20260505063844 | 65 | 201 | 5.0 | 11.0 | 0.00 | 0.00 | 0.00 | 66 | 1012.4 |
| 20260505062844 | 64 | 183 | 5.0 | 10.0 | 0.00 | 0.00 | 0.00 | 66 | 1012.6 |
| 20260505061845 | 65 | 239 | 4.0 | 16.0 | 0.00 | 0.00 | 0.00 | 66 | 1012.7 |
| 20260505060844 | 64 | 179 | 5.0 | 10.0 | 0.00 | 0.00 | 0.00 | 66 | 1012.8 |
| 20260505055845 | 64 | 186 | 4.0 | 10.0 | 0.00 | 0.00 | 0.00 | 68 | 1013.0 |
| 20260505054844 | 64 | 183 | 9.0 | 8.0 | 0.00 | 0.00 | 0.00 | 67 | 1013.2 |
| 20260505053845 | 64 | 193 | 9.0 | 9.0 | 0.00 | 0.00 | 0.00 | 67 | 1013.3 |
| 20260505053038 | 64 | 179 | 6.0 | 9.0 | 0.00 | 0.00 | 0.00 | 68 | 1013.3 |
| 20260505052844 | 64 | 179 | 6.0 | 9.0 | 0.00 | 0.00 | 0.00 | 68 | 1013.3 |
| 20260505051845 | 64 | 223 | 5.0 | 8.0 | 0.00 | 0.00 | 0.00 | 69 | 1013.4 |
| 20260505050844 | 64 | 193 | 6.0 | 9.0 | 0.00 | 0.00 | 0.00 | 68 | 1013.5 |
| 20260505040844 | 64 | 194 | 9.0 | 10.0 | 0.00 | 0.00 | 0.00 | 66 | 1013.7 |
| 20260505035845 | 64 | 186 | 5.0 | 8.0 | 0.00 | 0.00 | 0.00 | 66 | 1013.8 |
| 20260505034844 | 64 | 184 | 6.0 | 8.0 | 0.00 | 0.00 | 0.00 | 65 | 1013.9 |
| 20260505033846 | 64 | 194 | 6.0 | 8.0 | 0.00 | 0.00 | 0.00 | 65 | 1013.8 |
| 20260505032844 | 64 | 196 | 5.0 | 10.0 | 0.00 | 0.00 | 0.00 | 65 | 1013.7 |
| 20260505031845 | 64 | 201 | 4.0 | 9.0 | 0.00 | 0.00 | 0.00 | 64 | 1013.6 |
| 20260505030844 | 65 | 200 | 4.0 | 11.0 | 0.00 | 0.00 | 0.00 | 64 | 1013.6 |
| 20260505025845 | 65 | 180 | 5.0 | 10.0 | 0.00 | 0.00 | 0.00 | 63 | 1013.6 |
| 20260505024844 | 65 | 183 | 4.0 | 8.0 | 0.00 | 0.00 | 0.00 | 63 | 1013.6 |
| 20260505023845 | 66 | 187 | 3.0 | 8.0 | 0.00 | 0.00 | 0.00 | 62 | 1013.8 |
| 20260505022847 | 65 | 191 | 6.0 | 9.0 | 0.00 | 0.00 | 0.00 | 61 | 1014.0 |
| 20260505021844 | 66 | 191 | 6.0 | 8.0 | 0.00 | 0.00 | 0.00 | 62 | 1014.3 |
| 20260505020844 | 66 | 220 | 5.0 | 10.0 | 0.00 | 0.00 | 0.00 | 61 | 1014.5 |
| 20260505015845 | 66 | 193 | 6.0 | 11.0 | 0.00 | 0.00 | 0.00 | 59 | 1014.5 |
| 20260505014844 | 67 | 194 | 6.0 | 10.0 | 0.00 | 0.00 | 0.00 | 60 | 1014.4 |
| 20260505013845 | 67 | 196 | 4.0 | 10.0 | 0.00 | 0.00 | 0.00 | 59 | 1014.4 |
| 20260505012845 | 67 | 232 | 6.0 | 10.0 | 0.00 | 0.00 | 0.00 | 59 | 1014.3 |
| 20260505011845 | 67 | 201 | 5.0 | 13.0 | 0.00 | 0.00 | 0.00 | 58 | 1014.0 |
| 20260505010844 | 67 | 194 | 5.0 | 9.0 | 0.00 | 0.00 | 0.00 | 58 | 1013.7 |
| 20260505005844 | 68 | 196 | 5.0 | 8.0 | 0.00 | 0.00 | 0.00 | 57 | 1013.6 |